SCP
0 0 0 0 0 0 0 0 0 0 0 1 1 1 2 3 3 4 5 5 6 5 6 9 13 13 12 10 10 11 11 11 11 11 10 9 7 6 4 4 3 4 4 4
0 0 0 0 0 0 0 0 0 0 0 1 1 1 2 3 4 4 5 5 5 4 4 7 11 11 10 9 9 9 9 10 12 13 12 10 7 6 4 4 4 4 5 6
0 0 0 0 0 0 0 0 0 0 0 0 1 1 2 3 4 4 4 4 4 4 4 6 9 10 8 7 8 8 8 9 12 14 13 11 8 6 5 4 4 5 6 7
0 0 0 0 0 0 0 0 0 0 0 0 0 1 2 2 3 3 3 3 3 3 3 5 8 10 9 8 7 7 7 7 10 12 12 10 8 6 5 4 4 4 6 7
0 0 0 0 0 0 0 0 0 0 0 0 0 1 1 2 2 2 2 2 2 2 3 3 5 8 9 9 7 6 6 6 7 9 9 8 7 6 5 4 3 4 5 6
0 0 0 0 0 0 0 0 0 0 0 0 0 0 1 1 1 1 1 1 1 2 2 2 2 4 8 10 9 7 7 6 6 6 6 6 5 5 5 4 4 4 5 6
0 0 0 0 0 0 0 0 0 0 0 0 0 0 1 1 1 1 1 1 1 1 2 1 2 3 5 9 10 10 9 7 6 5 5 5 4 5 4 4 4 5 5 5
0 0 0 0 0 0 0 0 0 0 0 0 0 0 0 0 1 1 1 1 1 1 1 1 1 2 3 6 10 12 12 10 7 5 4 4 4 4 4 3 4 4 4 4
0 0 0 0 0 0 0 0 0 0 0 0 0 0 0 0 1 1 1 1 1 1 1 1 1 2 2 4 8 12 14 13 9 6 4 4 4 4 4 3 3 4 3 3
0 0 0 0 0 0 0 0 0 0 0 0 0 0 0 0 0 1 1 1 1 1 1 1 1 1 2 3 7 11 14 13 10 6 4 4 4 4 3 3 4 4 4 3
0 0 0 0 0 0 0 0 0 0 0 0 0 0 0 0 0 0 0 1 1 1 1 1 1 1 1 3 5 8 10 10 7 5 4 3 3 3 3 3 4 4 4 3
0 0 0 0 0 0 0 0 0 0 0 0 0 0 0 0 0 0 0 1 1 1 1 1 1 1 1 1 3 4 5 4 3 3 3 3 3 2 3 3 4 5 4 3
0 0 0 0 0 0 0 0 0 0 0 0 0 0 0 0 0 0 0 1 1 1 0 1 1 1 1 1 1 1 2 1 2 3 3 3 2 2 2 3 5 5 5 3
0 0 0 0 0 0 0 0 0 0 0 0 0 0 0 0 0 0 0 0 1 0 0 0 0 1 1 1 1 2 2 2 3 3 3 3 2 2 2 3 5 6 5 4
0 0 0 0 0 0 0 0 0 0 0 0 0 0 0 0 0 0 0 0 0 0 0 0 0 1 1 1 2 3 3 3 4 3 3 2 2 2 3 3 4 5 4 3
0 0 0 0 0 0 0 0 0 0 0 0 0 0 0 0 0 0 0 0 0 0 0 0 0 0 0 1 2 3 3 3 3 3 2 2 1 2 2 2 3 3 2 2
0 0 0 0 0 0 0 0 0 0 0 0 0 0 0 0 0 0 0 0 0 0 0 0 0 0 0 0 1 1 1 1 2 2 2 1 1 1 1 1 1 1 1 0
0 0 0 0 0 0 0 0 0 0 0 0 0 0 0 0 0 0 0 0 0 0 0 0 0 0 0 0 0 0 0 0 1 1 1 1 0 0 0 0 0 0 0 0
0 0 0 0 0 0 0 0 0 0 0 0 0 0 0 0 0 0 0 0 0 0 0 0 0 0 0 0 0 0 0 0 0 0 0 0 0 0 0 0 0 0 0 0
0 0 0 0 0 0 0 0 0 0 0 0 0 0 0 0 0 0 0 0 0 0 0 0 0 0 0 0 0 0 0 0 0 0 0 0 0 0 0 0 0 0 0 0
0 0 0 0 0 0 0 0 0 0 0 0 0 0 0 0 0 0 0 0 0 0 0 0 0 0 0 0 0 0 0 0 0 0 0 0 0 0 0 0 0 0 0 0
0 0 0 0 0 0 0 0 0 0 0 0 0 0 0 0 0 0 0 0 0 0 0 0 0 0 0 0 0 0 0 0 0 0 0 0 0 0 0 0 0 0 0 0
0 0 0 0 0 0 0 0 0 0 0 0 0 0 0 0 0 0 0 0 0 0 0 0 0 0 0 0 0 0 0 0 0 0 0 0 0 0 0 0 0 0 0 0
0 0 0 0 0 0 0 0 0 0 0 0 0 0 0 0 0 0 0 0 0 0 0 0 0 0 0 0 0 0 0 0 0 0 0 0 0 0 0 0 0 0 0 0
0 0 0 0 0 0 0 0 0 0 0 0 0 0 0 0 0 0 0 0 0 0 0 0 0 0 0 0 0 0 0 0 0 0 0 0 0 0 0 0 0 0 0 0
0 0 0 0 0 0 0 0 0 0 0 0 0 0 0 0 0 0 0 0 0 0 0 0 0 0 0 0 0 0 0 0 0 0 0 0 0 0 0 0 0 0 0 0
Wind_Speed
2 3 2 6 6 6 3 2 4 5 2 2 1 1 2 2 4 4 4 3 3 3 3 3 4 4 5 4 3 4 4 3 3 1 1 1 0 1 0 1 1 1 2 1
5 3 8 5 2 1 2 2 3 4 4 2 2 2 1 2 4 4 4 3 3 3 3 3 4 4 4 3 3 3 2 2 3 2 2 1 1 1 1 0 0 1 1 1
2 6 4 3 4 3 3 2 3 3 4 4 4 4 4 4 6 7 5 4 4 5 3 2 3 3 3 2 2 1 1 1 2 2 2 2 2 1 1 1 1 1 1 1
2 4 3 4 4 2 3 3 2 3 4 3 1 1 3 2 5 5 4 4 4 4 4 3 2 3 3 2 2 1 2 1 1 2 2 3 2 1 2 2 1 1 1 1
4 3 3 4 3 2 2 3 3 2 2 2 4 2 3 2 2 2 2 2 2 2 3 3 2 3 3 2 2 1 2 1 0 1 2 2 1 1 1 1 1 1 1 1
4 3 3 2 4 2 3 6 6 6 5 3 3 1 2 2 2 1 1 1 1 2 2 2 2 2 2 2 2 2 1 0 0 0 1 2 2 1 1 1 1 1 1 1
8 7 5 4 6 7 7 7 6 7 5 3 3 2 2 2 1 2 2 1 1 1 2 2 1 1 2 2 2 2 2 1 1 0 1 1 2 2 2 2 2 1 1 1
4 7 5 5 2 2 2 5 4 2 3 4 3 0 3 1 1 2 1 1 1 1 2 2 1 2 3 3 2 2 2 1 1 1 2 2 1 1 2 2 2 2 2 2
2 5 6 5 4 1 2 2 4 5 0 1 3 2 2 3 4 4 3 3 2 1 1 1 1 1 2 2 2 2 2 1 1 1 1 1 1 1 2 2 2 2 2 1
2 4 6 6 5 6 3 2 5 4 1 2 4 2 3 5 5 5 4 3 3 2 1 1 0 0 1 2 1 1 1 1 1 1 1 1 2 2 1 1 2 2 2 1
3 2 7 6 4 3 4 4 3 2 3 3 2 4 2 1 2 2 3 1 1 2 1 1 1 0 0 1 1 1 0 0 1 1 1 1 1 1 1 1 2 2 1 1
3 3 3 6 6 1 2 1 3 2 2 2 2 5 3 1 2 2 3 2 2 1 1 1 1 2 2 1 0 0 0 0 2 1 1 1 2 1 1 2 2 1 1 2
2 4 4 9 9 8 6 5 2 2 2 1 2 5 4 4 4 3 3 2 1 1 1 1 1 2 1 1 1 1 1 2 1 1 1 1 2 2 2 2 2 1 1 1
4 3 3 3 5 5 5 7 5 3 2 1 2 4 5 4 4 3 3 1 1 1 1 1 1 2 1 1 1 1 2 2 1 1 1 2 2 2 3 2 1 1 1 1
5 1 2 4 5 3 4 6 4 2 2 3 2 2 4 3 2 2 2 2 2 2 2 2 1 2 1 1 2 2 2 2 1 1 1 2 2 2 1 1 1 1 1 1
3 1 3 5 4 3 5 7 5 4 2 2 1 2 3 2 2 2 3 3 2 3 2 2 2 2 1 1 2 3 3 2 1 1 1 2 1 1 1 1 1 1 1 2
1 1 2 4 7 4 4 5 4 2 2 2 1 3 3 4 3 2 2 2 2 2 2 2 2 2 2 1 1 2 3 2 1 1 1 1 1 1 1 0 0 0 1 1
3 1 1 2 4 2 3 2 4 3 3 3 2 3 3 3 3 2 1 1 2 2 2 2 2 1 2 1 1 2 2 1 1 1 2 2 1 1 1 0 1 1 1 1
5 4 2 1 1 3 2 4 4 1 2 3 3 5 6 5 4 3 3 2 2 2 2 2 1 1 1 1 2 2 2 2 1 2 2 2 1 1 1 1 2 2 1 1
4 4 3 1 0 2 3 6 4 3 2 5 4 3 4 5 4 4 5 4 3 3 2 1 1 1 1 2 1 2 2 2 2 2 2 2 1 1 2 2 2 1 1 1
4 3 1 1 2 3 3 5 4 3 5 6 3 3 2 2 4 5 4 3 3 3 2 1 1 0 2 2 1 1 2 2 3 3 2 2 1 1 2 1 1 1 1 1
1 0 1 1 1 5 4 3 1 5 5 4 3 2 2 3 3 2 3 3 3 3 2 1 1 2 2 1 1 1 3 4 3 2 2 2 1 1 1 1 1 1 1 1
1 3 4 4 5 5 3 2 4 3 3 3 3 3 2 2 3 3 3 3 3 3 2 1 1 2 2 2 1 1 4 3 2 2 2 2 2 1 1 1 1 1 0 0
3 0 1 1 3 4 4 3 3 3 3 4 3 2 1 2 2 3 3 4 3 2 2 1 1 2 3 3 3 3 3 2 1 1 2 2 2 2 2 1 1 1 1 1
4 1 1 3 4 4 5 4 5 4 3 2 2 1 1 1 3 3 3 4 3 3 2 1 1 3 4 4 4 4 3 1 1 1 2 2 1 1 1 1 2 2 3 3
3 3 3 6 6 4 7 6 5 5 3 2 1 2 2 2 3 3 3 3 3 3 2 2 2 3 4 4 4 4 2 1 1 1 2 1 1 1 1 1 3 5 4 5
Wind_Direction
325 64 269 246 218 207 231 276 293 283 285 60 112 262 251 183 128 126 119 106 120 142 146 135 127 113 99 99 112 120 114 131 136 130 135 138 171 209 205 216 193 184 193 182
17 312 255 255 285 325 346 338 309 305 331 59 74 16 1 89 117 119 121 121 113 101 80 94 98 97 102 108 118 122 132 139 146 163 169 160 152 227 218 264 311 252 205 176
189 254 292 352 358 5 357 353 314 297 352 32 65 16 12 36 77 77 77 83 86 97 98 95 89 91 97 107 108 145 153 132 134 132 110 82 66 20 347 316 282 266 228 189
276 286 353 19 360 14 330 320 339 356 30 327 60 312 329 28 58 53 59 70 90 92 89 79 91 95 102 117 108 100 95 87 107 123 134 140 150 198 241 251 257 285 273 250
302 314 22 27 335 8 286 331 8 28 65 29 15 88 302 14 39 346 9 74 105 112 110 109 130 153 135 123 117 107 81 80 87 135 144 140 173 231 252 263 262 280 283 284
315 339 49 16 336 13 19 25 25 34 56 36 325 87 297 300 255 273 310 179 128 105 84 73 76 116 118 123 127 139 141 172 251 157 149 154 186 219 239 265 261 268 286 290
343 346 359 18 11 359 34 55 26 8 12 280 302 78 250 272 257 187 189 176 159 130 99 75 59 116 131 137 133 143 151 198 280 254 205 204 216 211 211 229 235 245 253 257
2 322 333 355 8 308 341 105 133 200 245 284 328 202 250 317 28 46 101 149 141 123 123 132 167 157 149 153 154 150 148 165 264 262 248 229 222 215 224 223 222 230 235 235
9 293 311 331 325 87 26 17 161 140 300 321 297 305 318 13 21 27 32 39 27 53 84 81 116 141 156 159 170 169 162 171 239 255 252 232 235 228 236 238 228 231 244 250
72 300 315 330 10 18 91 112 65 78 94 303 301 303 293 324 343 355 7 15 3 15 39 63 81 102 195 187 173 122 145 197 259 275 257 236 230 241 249 241 233 231 243 251
55 41 320 350 5 352 11 24 70 101 159 161 265 280 286 268 316 330 332 357 8 17 22 29 357 291 268 159 132 129 157 65 309 283 255 236 259 266 266 246 233 236 240 248
29 88 314 294 290 351 74 71 115 118 271 183 192 267 309 7 10 10 357 15 15 6 12 34 48 31 14 16 155 161 276 281 275 270 292 260 265 267 270 269 266 257 259 265
44 73 5 343 346 2 6 357 10 137 124 143 175 267 333 4 21 28 29 22 7 346 359 25 32 28 12 352 327 283 240 252 253 271 274 287 283 274 256 256 264 277 279 292
77 88 143 213 263 306 330 343 351 66 96 239 228 269 321 340 354 351 3 345 333 332 345 6 8 358 339 336 338 307 286 259 246 241 247 267 265 261 250 250 258 265 277 293
73 58 277 265 275 313 342 345 7 31 176 179 244 273 305 304 294 303 326 337 352 345 328 317 332 338 334 344 335 324 293 283 266 252 252 265 263 263 260 260 256 267 290 282
52 42 335 318 314 355 5 7 13 8 37 114 87 323 308 312 339 348 337 337 331 330 317 309 316 311 295 313 331 335 314 293 283 265 269 278 290 298 298 271 280 309 304 290
351 79 20 304 313 4 7 353 14 27 29 107 107 281 318 344 338 304 314 331 324 339 332 303 291 287 278 270 306 321 299 294 302 284 290 282 281 304 283 267 344 353 304 298
169 131 133 302 3 7 255 347 36 60 47 54 45 331 331 325 303 291 11 26 340 339 335 318 294 297 305 323 348 333 325 298 270 272 287 284 283 254 261 268 269 252 244 277
163 150 131 104 307 279 319 352 348 5 7 14 15 357 350 346 4 349 350 9 349 324 308 303 272 250 320 339 338 2 347 353 349 314 302 290 267 230 240 251 260 255 247 285
49 90 109 105 242 263 279 318 326 72 336 333 356 345 337 353 353 312 324 343 355 343 333 329 343 33 15 314 336 19 350 358 331 310 295 289 274 232 223 239 257 263 235 262
14 15 49 191 241 265 296 329 19 47 270 291 295 287 299 294 257 268 301 320 331 326 319 340 41 1 284 294 359 7 341 309 292 301 295 287 289 247 219 230 257 277 302 334
147 134 268 128 268 269 313 17 67 246 259 273 275 273 277 285 284 293 308 313 317 313 312 325 12 310 293 294 3 338 304 291 298 312 310 294 295 259 212 184 282 304 340 348
178 192 201 192 216 249 264 237 244 232 258 271 260 273 271 290 291 297 297 304 298 284 284 304 308 312 301 292 256 266 283 290 299 312 303 297 301 294 274 199 242 296 320 258
301 343 76 304 281 296 294 300 304 281 265 262 256 264 275 279 285 301 299 305 306 289 280 293 310 310 295 292 278 253 271 280 290 294 298 300 315 313 312 304 244 219 237 246
261 316 327 281 290 316 308 306 304 300 303 284 273 284 262 301 302 292 285 292 288 282 279 275 268 275 282 289 288 281 281 285 277 289 301 310 321 300 305 303 268 245 245 223
230 203 204 241 243 237 267 275 295 305 297 269 272 313 300 288 276 284 285 284 280 275 284 295 284 277 280 286 286 285 279 245 195 294 305 304 310 304 284 296 315 311 286 290